owner,sensor,date,latitude,longitude,vertical_datum,sea_water_practical_salinity,qcFlag 
SCCF RECON,ioos:station:SCCF:18:1,2013-11-01T00:00:00Z,26.6955,-81.8138,1.78,0.76,1111122 
SCCF RECON,ioos:station:SCCF:18:1,2013-11-01T01:00:00Z,26.6955,-81.8138,1.76,0.57,1111122 
SCCF RECON,ioos:station:SCCF:18:1,2013-11-01T02:00:00Z,26.6955,-81.8138,1.78,0.92,1111122 
SCCF RECON,ioos:station:SCCF:18:1,2013-11-01T03:00:00Z,26.6955,-81.8138,1.86,1.29,1111122 
SCCF RECON,ioos:station:SCCF:18:1,2013-11-01T04:00:00Z,26.6955,-81.8138,1.947,1.11,1111122 
SCCF RECON,ioos:station:SCCF:18:1,2013-11-01T05:00:00Z,26.6955,-81.8138,2.0,1.5,1111122 
SCCF RECON,ioos:station:SCCF:18:1,2013-11-01T06:00:00Z,26.6955,-81.8138,2.05,1.39,1111122 
SCCF RECON,ioos:station:SCCF:18:1,2013-11-01T07:00:00Z,26.6955,-81.8138,2.09,1.58,1111122 
SCCF RECON,ioos:station:SCCF:18:1,2013-11-01T08:00:00Z,26.6955,-81.8138,2.09,1.26,1111122 
SCCF RECON,ioos:station:SCCF:18:1,2013-11-01T09:00:00Z,26.6955,-81.8138,2.02,1.07,1111122 
SCCF RECON,ioos:station:SCCF:18:1,2013-11-01T10:00:00Z,26.6955,-81.8138,1.93,0.83,1111122 
SCCF RECON,ioos:station:SCCF:18:1,2013-11-01T11:00:00Z,26.6955,-81.8138,1.87,0.78,1111122 
SCCF RECON,ioos:station:SCCF:18:1,2013-11-01T12:00:00Z,26.6955,-81.8138,1.812,0.67,1111122 
SCCF RECON,ioos:station:SCCF:18:1,2013-11-01T13:00:00Z,26.6955,-81.8138,1.76,0.66,1111122 
SCCF RECON,ioos:station:SCCF:18:1,2013-11-01T14:00:00Z,26.6955,-81.8138,1.7,0.6,1111122 
SCCF RECON,ioos:station:SCCF:18:1,2013-11-01T15:00:00Z,26.6955,-81.8138,1.7,0.56,1111122 
SCCF RECON,ioos:station:SCCF:18:1,2013-11-01T16:00:00Z,26.6955,-81.8138,1.779,1.01,1111122 
SCCF RECON,ioos:station:SCCF:18:1,2013-11-01T17:00:00Z,26.6955,-81.8138,1.878,0.94,1111122 
SCCF RECON,ioos:station:SCCF:18:1,2013-11-01T18:00:00Z,26.6955,-81.8138,1.95,1.21,1111122 
SCCF RECON,ioos:station:SCCF:18:1,2013-11-01T19:00:00Z,26.6955,-81.8138,1.99,1.49,1111122 
SCCF RECON,ioos:station:SCCF:18:1,2013-11-01T20:00:00Z,26.6955,-81.8138,2.02,1.61,1111122 
SCCF RECON,ioos:station:SCCF:18:1,2013-11-01T21:00:00Z,26.6955,-81.8138,2.03,1.65,1111122 
SCCF RECON,ioos:station:SCCF:18:1,2013-11-01T22:00:00Z,26.6955,-81.8138,1.97,1.4,1111122 
SCCF RECON,ioos:station:SCCF:18:1,2013-11-01T23:00:00Z,26.6955,-81.8138,1.899,1.08,1111122 
SCCF RECON,ioos:station:SCCF:18:1,2013-11-02T00:00:00Z,26.6955,-81.8138,1.83,1.11,1111122 
SCCF RECON,ioos:station:SCCF:18:1,2013-11-02T01:00:00Z,26.6955,-81.8138,1.78,0.86,1111122 
SCCF RECON,ioos:station:SCCF:18:1,2013-11-02T02:00:00Z,26.6955,-81.8138,1.76,0.88,1111122 
SCCF RECON,ioos:station:SCCF:18:1,2013-11-02T03:00:00Z,26.6955,-81.8138,1.784,1.17,1111122 
SCCF RECON,ioos:station:SCCF:18:1,2013-11-02T04:00:00Z,26.6955,-81.8138,1.879,1.4,1111122 
SCCF RECON,ioos:station:SCCF:18:1,2013-11-02T05:00:00Z,26.6955,-81.8138,1.97,1.22,1111122 
SCCF RECON,ioos:station:SCCF:18:1,2013-11-02T06:00:00Z,26.6955,-81.8138,2.03,1.67,1111122 
SCCF RECON,ioos:station:SCCF:18:1,2013-11-02T07:00:00Z,26.6955,-81.8138,2.07,1.92,1111122 
SCCF RECON,ioos:station:SCCF:18:1,2013-11-02T08:00:00Z,26.6955,-81.8138,2.09,1.63,1111122 
SCCF RECON,ioos:station:SCCF:18:1,2013-11-02T09:00:00Z,26.6955,-81.8138,2.05,1.57,1111122 
SCCF RECON,ioos:station:SCCF:18:1,2013-11-02T10:00:00Z,26.6955,-81.8138,1.97,1.18,1111122 
SCCF RECON,ioos:station:SCCF:18:1,2013-11-02T11:00:00Z,26.6955,-81.8138,1.89,1.06,1111122 
SCCF RECON,ioos:station:SCCF:18:1,2013-11-02T12:00:00Z,26.6955,-81.8138,1.83,0.97,1111122 
SCCF RECON,ioos:station:SCCF:18:1,2013-11-02T13:00:00Z,26.6955,-81.8138,1.78,0.89,1111122 
SCCF RECON,ioos:station:SCCF:18:1,2013-11-02T14:00:00Z,26.6955,-81.8138,1.73,0.82,1111122 
SCCF RECON,ioos:station:SCCF:18:1,2013-11-02T15:00:00Z,26.6955,-81.8138,1.71,0.74,1111122 
SCCF RECON,ioos:station:SCCF:18:1,2013-11-02T16:00:00Z,26.6955,-81.8138,1.746,0.93,1111122 
SCCF RECON,ioos:station:SCCF:18:1,2013-11-02T17:00:00Z,26.6955,-81.8138,1.83,1.07,1111122 
SCCF RECON,ioos:station:SCCF:18:1,2013-11-02T18:00:00Z,26.6955,-81.8138,1.89,1.18,1111122 
SCCF RECON,ioos:station:SCCF:18:1,2013-11-02T19:00:00Z,26.6955,-81.8138,1.901,1.2,1111122 
SCCF RECON,ioos:station:SCCF:18:1,2013-11-02T20:00:00Z,26.6955,-81.8138,1.94,1.46,1111122 
SCCF RECON,ioos:station:SCCF:18:1,2013-11-02T21:00:00Z,26.6955,-81.8138,1.959,1.34,1111122 
SCCF RECON,ioos:station:SCCF:18:1,2013-11-02T22:00:00Z,26.6955,-81.8138,1.89,1.08,1111122 
SCCF RECON,ioos:station:SCCF:18:1,2013-11-02T23:00:00Z,26.6955,-81.8138,1.811,0.98,1111122 
SCCF RECON,ioos:station:SCCF:18:1,2013-11-03T00:00:00Z,26.6955,-81.8138,1.76,1.0,1111122 
SCCF RECON,ioos:station:SCCF:18:1,2013-11-03T01:00:00Z,26.6955,-81.8138,1.72,0.96,1111122 
SCCF RECON,ioos:station:SCCF:18:1,2013-11-03T02:00:00Z,26.6955,-81.8138,1.68,0.85,1111122 
SCCF RECON,ioos:station:SCCF:18:1,2013-11-03T03:00:00Z,26.6955,-81.8138,1.64,0.77,1111122 
SCCF RECON,ioos:station:SCCF:18:1,2013-11-03T04:00:00Z,26.6955,-81.8138,1.65,0.87,1111122 
SCCF RECON,ioos:station:SCCF:18:1,2013-11-03T05:00:00Z,26.6955,-81.8138,1.72,1.02,1111122 
SCCF RECON,ioos:station:SCCF:18:1,2013-11-03T06:00:00Z,26.6955,-81.8138,1.8,1.02,1111122 
SCCF RECON,ioos:station:SCCF:18:1,2013-11-03T07:00:00Z,26.6955,-81.8138,1.88,1.13,1111122 
SCCF RECON,ioos:station:SCCF:18:1,2013-11-03T08:00:00Z,26.6955,-81.8138,1.91,1.16,1111122 
SCCF RECON,ioos:station:SCCF:18:1,2013-11-03T09:00:00Z,26.6955,-81.8138,1.9,1.1,1111122 
SCCF RECON,ioos:station:SCCF:18:1,2013-11-03T10:00:00Z,26.6955,-81.8138,1.82,0.96,1111122 
SCCF RECON,ioos:station:SCCF:18:1,2013-11-03T11:00:00Z,26.6955,-81.8138,1.75,0.9,1111122 
SCCF RECON,ioos:station:SCCF:18:1,2013-11-03T12:00:00Z,26.6955,-81.8138,1.69,0.84,1111122 
SCCF RECON,ioos:station:SCCF:18:1,2013-11-03T13:00:00Z,26.6955,-81.8138,1.64,0.81,1111122 
SCCF RECON,ioos:station:SCCF:18:1,2013-11-03T14:00:00Z,26.6955,-81.8138,1.59,0.74,1111122 
SCCF RECON,ioos:station:SCCF:18:1,2013-11-03T15:00:00Z,26.6955,-81.8138,1.52,0.7,1111122 
SCCF RECON,ioos:station:SCCF:18:1,2013-11-03T16:00:00Z,26.6955,-81.8138,1.452,0.72,1111122 
SCCF RECON,ioos:station:SCCF:18:1,2013-11-03T17:00:00Z,26.6955,-81.8138,1.41,0.72,1111122 
SCCF RECON,ioos:station:SCCF:18:1,2013-11-03T18:00:00Z,26.6955,-81.8138,1.39,0.74,1111122 
SCCF RECON,ioos:station:SCCF:18:1,2013-11-03T19:00:00Z,26.6955,-81.8138,1.44,0.74,1111122 
SCCF RECON,ioos:station:SCCF:18:1,2013-11-03T20:00:00Z,26.6955,-81.8138,1.516,0.8,1111122 
SCCF RECON,ioos:station:SCCF:18:1,2013-11-03T21:00:00Z,26.6955,-81.8138,1.57,0.76,1111122 
SCCF RECON,ioos:station:SCCF:18:1,2013-11-03T22:00:00Z,26.6955,-81.8138,1.6,0.75,1111122 
SCCF RECON,ioos:station:SCCF:18:1,2013-11-03T23:00:00Z,26.6955,-81.8138,1.61,0.82,1111122 
SCCF RECON,ioos:station:SCCF:18:1,2013-11-04T00:00:00Z,26.6955,-81.8138,1.591,0.7,1111122 
SCCF RECON,ioos:station:SCCF:18:1,2013-11-04T01:00:00Z,26.6955,-81.8138,1.56,0.77,1111122 
SCCF RECON,ioos:station:SCCF:18:1,2013-11-04T02:00:00Z,26.6955,-81.8138,1.53,0.78,1111122 
SCCF RECON,ioos:station:SCCF:18:1,2013-11-04T03:00:00Z,26.6955,-81.8138,1.49,0.74,1111122 
SCCF RECON,ioos:station:SCCF:18:1,2013-11-04T04:00:00Z,26.6955,-81.8138,1.49,0.77,1111122 
SCCF RECON,ioos:station:SCCF:18:1,2013-11-04T05:00:00Z,26.6955,-81.8138,1.554,0.86,1111122 
SCCF RECON,ioos:station:SCCF:18:1,2013-11-04T06:00:00Z,26.6955,-81.8138,1.61,0.78,1111122 
SCCF RECON,ioos:station:SCCF:18:1,2013-11-04T07:00:00Z,26.6955,-81.8138,1.69,1.04,1111122 
SCCF RECON,ioos:station:SCCF:18:1,2013-11-04T08:00:00Z,26.6955,-81.8138,1.75,1.17,1111122 
SCCF RECON,ioos:station:SCCF:18:1,2013-11-04T09:00:00Z,26.6955,-81.8138,1.78,1.02,1111122 
SCCF RECON,ioos:station:SCCF:18:1,2013-11-04T10:00:00Z,26.6955,-81.8138,1.75,0.88,1111122 
SCCF RECON,ioos:station:SCCF:18:1,2013-11-04T11:00:00Z,26.6955,-81.8138,1.68,0.86,1111122 
SCCF RECON,ioos:station:SCCF:18:1,2013-11-04T12:00:00Z,26.6955,-81.8138,1.63,0.86,1111122 
SCCF RECON,ioos:station:SCCF:18:1,2013-11-04T13:00:00Z,26.6955,-81.8138,1.58,0.8,1111122 
SCCF RECON,ioos:station:SCCF:18:1,2013-11-04T14:00:00Z,26.6955,-81.8138,1.54,0.76,1111122 
SCCF RECON,ioos:station:SCCF:18:1,2013-11-04T15:00:00Z,26.6955,-81.8138,1.48,0.7,1111122 
SCCF RECON,ioos:station:SCCF:18:1,2013-11-04T16:00:00Z,26.6955,-81.8138,1.414,0.69,1111122 
SCCF RECON,ioos:station:SCCF:18:1,2013-11-04T17:00:00Z,26.6955,-81.8138,1.364,0.69,1111122 
SCCF RECON,ioos:station:SCCF:18:1,2013-11-04T18:00:00Z,26.6955,-81.8138,1.329,0.69,1111122 
SCCF RECON,ioos:station:SCCF:18:1,2013-11-04T19:00:00Z,26.6955,-81.8138,1.34,0.7,1111122 
SCCF RECON,ioos:station:SCCF:18:1,2013-11-04T20:00:00Z,26.6955,-81.8138,1.403,0.7,1111122 
SCCF RECON,ioos:station:SCCF:18:1,2013-11-04T21:00:00Z,26.6955,-81.8138,1.466,0.71,1111122 
SCCF RECON,ioos:station:SCCF:18:1,2013-11-04T22:00:00Z,26.6955,-81.8138,1.49,0.75,1111122 
SCCF RECON,ioos:station:SCCF:18:1,2013-11-04T23:00:00Z,26.6955,-81.8138,1.54,0.79,1111122 
SCCF RECON,ioos:station:SCCF:18:1,2013-11-05T00:00:00Z,26.6955,-81.8138,1.58,0.72,1111122 
SCCF RECON,ioos:station:SCCF:18:1,2013-11-05T01:00:00Z,26.6955,-81.8138,1.571,0.86,1111122 
SCCF RECON,ioos:station:SCCF:18:1,2013-11-05T02:00:00Z,26.6955,-81.8138,1.56,0.81,1111122 
SCCF RECON,ioos:station:SCCF:18:1,2013-11-05T03:00:00Z,26.6955,-81.8138,1.52,0.84,1111122 
SCCF RECON,ioos:station:SCCF:18:1,2013-11-05T04:00:00Z,26.6955,-81.8138,1.5,0.85,1111122 
SCCF RECON,ioos:station:SCCF:18:1,2013-11-05T05:00:00Z,26.6955,-81.8138,1.53,1.0,1111122 
SCCF RECON,ioos:station:SCCF:18:1,2013-11-05T06:00:00Z,26.6955,-81.8138,1.59,0.9,1111122 
SCCF RECON,ioos:station:SCCF:18:1,2013-11-05T07:00:00Z,26.6955,-81.8138,1.67,0.9,1111122 
SCCF RECON,ioos:station:SCCF:18:1,2013-11-05T08:00:00Z,26.6955,-81.8138,1.71,1.13,1111122 
SCCF RECON,ioos:station:SCCF:18:1,2013-11-05T09:00:00Z,26.6955,-81.8138,1.76,1.1,1111122 
SCCF RECON,ioos:station:SCCF:18:1,2013-11-05T10:00:00Z,26.6955,-81.8138,1.79,1.01,1111122 
SCCF RECON,ioos:station:SCCF:18:1,2013-11-05T11:00:00Z,26.6955,-81.8138,1.749,0.95,1111122 
SCCF RECON,ioos:station:SCCF:18:1,2013-11-05T12:00:00Z,26.6955,-81.8138,1.68,0.88,1111122 
SCCF RECON,ioos:station:SCCF:18:1,2013-11-05T13:00:00Z,26.6955,-81.8138,1.63,0.9,1111122 
SCCF RECON,ioos:station:SCCF:18:1,2013-11-05T14:00:00Z,26.6955,-81.8138,1.58,0.88,1111122 
SCCF RECON,ioos:station:SCCF:18:1,2013-11-05T15:00:00Z,26.6955,-81.8138,1.54,0.84,1111122 
SCCF RECON,ioos:station:SCCF:18:1,2013-11-05T16:00:00Z,26.6955,-81.8138,1.48,0.78,1111122 
SCCF RECON,ioos:station:SCCF:18:1,2013-11-05T17:00:00Z,26.6955,-81.8138,1.42,0.8,1111122 
SCCF RECON,ioos:station:SCCF:18:1,2013-11-05T18:00:00Z,26.6955,-81.8138,1.364,0.76,1111122 
SCCF RECON,ioos:station:SCCF:18:1,2013-11-05T19:00:00Z,26.6955,-81.8138,1.36,0.75,1111122 
SCCF RECON,ioos:station:SCCF:18:1,2013-11-05T20:00:00Z,26.6955,-81.8138,1.41,0.81,1111122 
SCCF RECON,ioos:station:SCCF:18:1,2013-11-05T21:00:00Z,26.6955,-81.8138,1.48,0.79,1111122 
SCCF RECON,ioos:station:SCCF:18:1,2013-11-05T22:00:00Z,26.6955,-81.8138,1.54,0.86,1111122 
SCCF RECON,ioos:station:SCCF:18:1,2013-11-05T23:00:00Z,26.6955,-81.8138,1.63,0.77,1111122 
SCCF RECON,ioos:station:SCCF:18:1,2013-11-06T00:00:00Z,26.6955,-81.8138,1.66,0.78,1111122 
SCCF RECON,ioos:station:SCCF:18:1,2013-11-06T01:00:00Z,26.6955,-81.8138,1.67,0.91,1111122 
SCCF RECON,ioos:station:SCCF:18:1,2013-11-06T02:00:00Z,26.6955,-81.8138,1.64,0.89,1111122 
SCCF RECON,ioos:station:SCCF:18:1,2013-11-06T03:00:00Z,26.6955,-81.8138,1.6,0.89,1111122 
SCCF RECON,ioos:station:SCCF:18:1,2013-11-06T04:00:00Z,26.6955,-81.8138,1.58,0.9,1111122 
SCCF RECON,ioos:station:SCCF:18:1,2013-11-06T05:00:00Z,26.6955,-81.8138,1.598,0.92,1111122 
SCCF RECON,ioos:station:SCCF:18:1,2013-11-06T06:00:00Z,26.6955,-81.8138,1.65,1.2,1111122 
SCCF RECON,ioos:station:SCCF:18:1,2013-11-06T07:00:00Z,26.6955,-81.8138,1.736,1.1,1111122 
SCCF RECON,ioos:station:SCCF:18:1,2013-11-06T08:00:00Z,26.6955,-81.8138,1.81,1.13,1111122 
SCCF RECON,ioos:station:SCCF:18:1,2013-11-06T09:00:00Z,26.6955,-81.8138,1.87,1.21,1111122 
SCCF RECON,ioos:station:SCCF:18:1,2013-11-06T10:00:00Z,26.6955,-81.8138,1.91,1.21,1111122 
SCCF RECON,ioos:station:SCCF:18:1,2013-11-06T11:00:00Z,26.6955,-81.8138,1.94,0.99,1111122 
SCCF RECON,ioos:station:SCCF:18:1,2013-11-06T12:00:00Z,26.6955,-81.8138,1.91,1.09,1111122 
SCCF RECON,ioos:station:SCCF:18:1,2013-11-06T13:00:00Z,26.6955,-81.8138,1.84,1.01,1111122 
SCCF RECON,ioos:station:SCCF:18:1,2013-11-06T14:00:00Z,26.6955,-81.8138,1.77,0.97,1111122 
SCCF RECON,ioos:station:SCCF:18:1,2013-11-06T15:00:00Z,26.6955,-81.8138,1.71,0.97,1111122 
SCCF RECON,ioos:station:SCCF:18:1,2013-11-06T16:00:00Z,26.6955,-81.8138,1.65,0.86,1111122 
SCCF RECON,ioos:station:SCCF:18:1,2013-11-06T17:00:00Z,26.6955,-81.8138,1.6,0.88,1111122 
SCCF RECON,ioos:station:SCCF:18:1,2013-11-06T18:00:00Z,26.6955,-81.8138,1.55,0.86,1111122 
SCCF RECON,ioos:station:SCCF:18:1,2013-11-06T19:00:00Z,26.6955,-81.8138,1.53,0.86,1111122 
SCCF RECON,ioos:station:SCCF:18:1,2013-11-06T20:00:00Z,26.6955,-81.8138,1.55,1.08,1111122 
SCCF RECON,ioos:station:SCCF:18:1,2013-11-06T21:00:00Z,26.6955,-81.8138,1.64,0.95,1111122 
SCCF RECON,ioos:station:SCCF:18:1,2013-11-06T22:00:00Z,26.6955,-81.8138,1.71,1.14,1111122 
SCCF RECON,ioos:station:SCCF:18:1,2013-11-06T23:00:00Z,26.6955,-81.8138,1.78,1.33,1111122 
SCCF RECON,ioos:station:SCCF:18:1,2013-11-07T00:00:00Z,26.6955,-81.8138,1.84,1.16,1111122 
SCCF RECON,ioos:station:SCCF:18:1,2013-11-07T01:00:00Z,26.6955,-81.8138,1.87,1.1,1111122 
SCCF RECON,ioos:station:SCCF:18:1,2013-11-07T02:00:00Z,26.6955,-81.8138,1.86,1.05,1111122 
SCCF RECON,ioos:station:SCCF:18:1,2013-11-07T03:00:00Z,26.6955,-81.8138,1.85,1.03,1111122 
SCCF RECON,ioos:station:SCCF:18:1,2013-11-07T04:00:00Z,26.6955,-81.8138,1.81,0.98,1111122 
SCCF RECON,ioos:station:SCCF:18:1,2013-11-07T05:00:00Z,26.6955,-81.8138,1.79,0.94,1111122 
SCCF RECON,ioos:station:SCCF:18:1,2013-11-07T06:00:00Z,26.6955,-81.8138,1.804,1.27,1111122 
SCCF RECON,ioos:station:SCCF:18:1,2013-11-07T07:00:00Z,26.6955,-81.8138,1.871,1.73,1111122 
SCCF RECON,ioos:station:SCCF:18:1,2013-11-07T08:00:00Z,26.6955,-81.8138,1.95,1.55,1111122 
SCCF RECON,ioos:station:SCCF:18:1,2013-11-07T09:00:00Z,26.6955,-81.8138,2.01,1.55,1111122 
SCCF RECON,ioos:station:SCCF:18:1,2013-11-07T10:00:00Z,26.6955,-81.8138,2.04,1.68,1111122 
SCCF RECON,ioos:station:SCCF:18:1,2013-11-07T11:00:00Z,26.6955,-81.8138,2.07,1.79,1111122 
SCCF RECON,ioos:station:SCCF:18:1,2013-11-07T12:00:00Z,26.6955,-81.8138,2.07,1.54,1111122 
SCCF RECON,ioos:station:SCCF:18:1,2013-11-07T13:00:00Z,26.6955,-81.8138,2.0,1.21,1111122 
SCCF RECON,ioos:station:SCCF:18:1,2013-11-07T14:00:00Z,26.6955,-81.8138,1.92,1.23,1111122 
SCCF RECON,ioos:station:SCCF:18:1,2013-11-07T15:00:00Z,26.6955,-81.8138,1.86,1.06,1111122 
SCCF RECON,ioos:station:SCCF:18:1,2013-11-07T16:00:00Z,26.6955,-81.8138,1.8,1.0,1111122 
SCCF RECON,ioos:station:SCCF:18:1,2013-11-07T17:00:00Z,26.6955,-81.8138,1.74,0.98,1111122 
SCCF RECON,ioos:station:SCCF:18:1,2013-11-07T18:00:00Z,26.6955,-81.8138,1.67,0.99,1111122 
SCCF RECON,ioos:station:SCCF:18:1,2013-11-07T19:00:00Z,26.6955,-81.8138,1.601,0.92,1111122 
SCCF RECON,ioos:station:SCCF:18:1,2013-11-07T20:00:00Z,26.6955,-81.8138,1.57,0.97,1111122 
SCCF RECON,ioos:station:SCCF:18:1,2013-11-07T21:00:00Z,26.6955,-81.8138,1.625,1.67,1111122 
SCCF RECON,ioos:station:SCCF:18:1,2013-11-07T22:00:00Z,26.6955,-81.8138,1.7,1.27,1111122 
SCCF RECON,ioos:station:SCCF:18:1,2013-11-07T23:00:00Z,26.6955,-81.8138,1.768,1.37,1111122 
SCCF RECON,ioos:station:SCCF:18:1,2013-11-08T00:00:00Z,26.6955,-81.8138,1.82,1.64,1111122 
SCCF RECON,ioos:station:SCCF:18:1,2013-11-08T01:00:00Z,26.6955,-81.8138,1.86,1.54,1111122 
SCCF RECON,ioos:station:SCCF:18:1,2013-11-08T02:00:00Z,26.6955,-81.8138,1.87,1.34,1111122 
SCCF RECON,ioos:station:SCCF:18:1,2013-11-08T03:00:00Z,26.6955,-81.8138,1.82,1.06,1111122 
SCCF RECON,ioos:station:SCCF:18:1,2013-11-08T04:00:00Z,26.6955,-81.8138,1.76,0.98,1111122 
SCCF RECON,ioos:station:SCCF:18:1,2013-11-08T05:00:00Z,26.6955,-81.8138,1.71,0.96,1111122 
SCCF RECON,ioos:station:SCCF:18:1,2013-11-08T06:00:00Z,26.6955,-81.8138,1.7,1.05,1111122 
SCCF RECON,ioos:station:SCCF:18:1,2013-11-08T07:00:00Z,26.6955,-81.8138,1.7,0.93,1111122 
SCCF RECON,ioos:station:SCCF:18:1,2013-11-08T08:00:00Z,26.6955,-81.8138,1.75,1.39,1111122 
SCCF RECON,ioos:station:SCCF:18:1,2013-11-08T09:00:00Z,26.6955,-81.8138,1.83,1.35,1111122 
SCCF RECON,ioos:station:SCCF:18:1,2013-11-08T10:00:00Z,26.6955,-81.8138,1.898,1.37,1111122 
SCCF RECON,ioos:station:SCCF:18:1,2013-11-08T11:00:00Z,26.6955,-81.8138,1.94,1.44,1111122 
SCCF RECON,ioos:station:SCCF:18:1,2013-11-08T12:00:00Z,26.6955,-81.8138,1.95,1.39,1111122 
SCCF RECON,ioos:station:SCCF:18:1,2013-11-08T13:00:00Z,26.6955,-81.8138,1.91,0.97,1111122 
SCCF RECON,ioos:station:SCCF:18:1,2013-11-08T14:00:00Z,26.6955,-81.8138,1.85,1.02,1111122 
SCCF RECON,ioos:station:SCCF:18:1,2013-11-08T15:00:00Z,26.6955,-81.8138,1.78,1.21,1111122 
SCCF RECON,ioos:station:SCCF:18:1,2013-11-08T16:00:00Z,26.6955,-81.8138,1.71,0.92,1111122 
SCCF RECON,ioos:station:SCCF:18:1,2013-11-08T17:00:00Z,26.6955,-81.8138,1.66,0.95,1111122 
SCCF RECON,ioos:station:SCCF:18:1,2013-11-08T18:00:00Z,26.6955,-81.8138,1.6,0.88,1111122 
SCCF RECON,ioos:station:SCCF:18:1,2013-11-08T19:00:00Z,26.6955,-81.8138,1.54,0.88,1111122 
SCCF RECON,ioos:station:SCCF:18:1,2013-11-08T20:00:00Z,26.6955,-81.8138,1.49,0.91,1111122 
SCCF RECON,ioos:station:SCCF:18:1,2013-11-08T21:00:00Z,26.6955,-81.8138,1.45,0.94,1111122 
SCCF RECON,ioos:station:SCCF:18:1,2013-11-08T22:00:00Z,26.6955,-81.8138,1.46,1.08,1111122 
SCCF RECON,ioos:station:SCCF:18:1,2013-11-08T23:00:00Z,26.6955,-81.8138,1.52,1.49,1111122 
SCCF RECON,ioos:station:SCCF:18:1,2013-11-09T00:00:00Z,26.6955,-81.8138,1.58,1.31,1111122 
SCCF RECON,ioos:station:SCCF:18:1,2013-11-09T01:00:00Z,26.6955,-81.8138,1.62,1.17,1111122 
SCCF RECON,ioos:station:SCCF:18:1,2013-11-09T02:00:00Z,26.6955,-81.8138,1.64,0.91,1111122 
SCCF RECON,ioos:station:SCCF:18:1,2013-11-09T03:00:00Z,26.6955,-81.8138,1.64,0.97,1111122 
SCCF RECON,ioos:station:SCCF:18:1,2013-11-09T04:00:00Z,26.6955,-81.8138,1.61,1.0,1111122 
SCCF RECON,ioos:station:SCCF:18:1,2013-11-09T05:00:00Z,26.6955,-81.8138,1.59,0.98,1111122 
SCCF RECON,ioos:station:SCCF:18:1,2013-11-09T06:00:00Z,26.6955,-81.8138,1.54,1.04,1111122 
SCCF RECON,ioos:station:SCCF:18:1,2013-11-09T07:00:00Z,26.6955,-81.8138,1.508,1.0,1111122 
SCCF RECON,ioos:station:SCCF:18:1,2013-11-09T08:00:00Z,26.6955,-81.8138,1.5,1.05,1111122 
SCCF RECON,ioos:station:SCCF:18:1,2013-11-09T09:00:00Z,26.6955,-81.8138,1.54,1.01,1111122 
SCCF RECON,ioos:station:SCCF:18:1,2013-11-09T10:00:00Z,26.6955,-81.8138,1.6,1.42,1111122 
SCCF RECON,ioos:station:SCCF:18:1,2013-11-09T11:00:00Z,26.6955,-81.8138,1.66,1.28,1111122 
SCCF RECON,ioos:station:SCCF:18:1,2013-11-09T12:00:00Z,26.6955,-81.8138,1.72,1.32,1111122 
SCCF RECON,ioos:station:SCCF:18:1,2013-11-09T13:00:00Z,26.6955,-81.8138,1.77,1.23,1111122 
SCCF RECON,ioos:station:SCCF:18:1,2013-11-09T14:00:00Z,26.6955,-81.8138,1.78,0.92,1111122 
SCCF RECON,ioos:station:SCCF:18:1,2013-11-09T15:00:00Z,26.6955,-81.8138,1.75,0.92,1111122 
SCCF RECON,ioos:station:SCCF:18:1,2013-11-09T16:00:00Z,26.6955,-81.8138,1.7,1.07,1111122 
SCCF RECON,ioos:station:SCCF:18:1,2013-11-09T17:00:00Z,26.6955,-81.8138,1.63,0.97,1111122 
SCCF RECON,ioos:station:SCCF:18:1,2013-11-09T18:00:00Z,26.6955,-81.8138,1.57,1.06,1111122 
SCCF RECON,ioos:station:SCCF:18:1,2013-11-09T19:00:00Z,26.6955,-81.8138,1.53,0.98,1111122 
SCCF RECON,ioos:station:SCCF:18:1,2013-11-09T20:00:00Z,26.6955,-81.8138,1.48,0.95,1111122 
SCCF RECON,ioos:station:SCCF:18:1,2013-11-09T21:00:00Z,26.6955,-81.8138,1.44,0.91,1111122 
SCCF RECON,ioos:station:SCCF:18:1,2013-11-09T22:00:00Z,26.6955,-81.8138,1.45,0.93,1111122 
SCCF RECON,ioos:station:SCCF:18:1,2013-11-09T23:00:00Z,26.6955,-81.8138,1.5,1.24,1111122 
SCCF RECON,ioos:station:SCCF:18:1,2013-11-10T00:00:00Z,26.6955,-81.8138,1.57,1.06,1111122 
SCCF RECON,ioos:station:SCCF:18:1,2013-11-10T01:00:00Z,26.6955,-81.8138,1.62,1.06,1111122 
SCCF RECON,ioos:station:SCCF:18:1,2013-11-10T02:00:00Z,26.6955,-81.8138,1.66,1.37,1111122 
SCCF RECON,ioos:station:SCCF:18:1,2013-11-10T03:00:00Z,26.6955,-81.8138,1.72,1.52,1111122 
SCCF RECON,ioos:station:SCCF:18:1,2013-11-10T04:00:00Z,26.6955,-81.8138,1.76,1.06,1111122 
SCCF RECON,ioos:station:SCCF:18:1,2013-11-10T05:00:00Z,26.6955,-81.8138,1.76,1.03,1111122 
SCCF RECON,ioos:station:SCCF:18:1,2013-11-10T06:00:00Z,26.6955,-81.8138,1.73,0.92,1111122 
SCCF RECON,ioos:station:SCCF:18:1,2013-11-10T07:00:00Z,26.6955,-81.8138,1.68,0.92,1111122 
SCCF RECON,ioos:station:SCCF:18:1,2013-11-10T08:00:00Z,26.6955,-81.8138,1.64,0.96,1111122 
SCCF RECON,ioos:station:SCCF:18:1,2013-11-10T09:00:00Z,26.6955,-81.8138,1.61,0.93,1111122 
SCCF RECON,ioos:station:SCCF:18:1,2013-11-10T10:00:00Z,26.6955,-81.8138,1.64,1.02,1111122 
SCCF RECON,ioos:station:SCCF:18:1,2013-11-10T11:00:00Z,26.6955,-81.8138,1.71,1.56,1111122 
SCCF RECON,ioos:station:SCCF:18:1,2013-11-10T12:00:00Z,26.6955,-81.8138,1.8,1.17,1111122 
SCCF RECON,ioos:station:SCCF:18:1,2013-11-10T13:00:00Z,26.6955,-81.8138,1.85,1.38,1111122 
SCCF RECON,ioos:station:SCCF:18:1,2013-11-10T14:00:00Z,26.6955,-81.8138,1.89,1.48,1111122 
SCCF RECON,ioos:station:SCCF:18:1,2013-11-10T15:00:00Z,26.6955,-81.8138,1.93,1.26,1111122 
SCCF RECON,ioos:station:SCCF:18:1,2013-11-10T16:00:00Z,26.6955,-81.8138,1.91,0.89,1111122 
SCCF RECON,ioos:station:SCCF:18:1,2013-11-10T17:00:00Z,26.6955,-81.8138,1.84,0.94,1111122 
SCCF RECON,ioos:station:SCCF:18:1,2013-11-10T18:00:00Z,26.6955,-81.8138,1.76,0.94,1111122 
SCCF RECON,ioos:station:SCCF:18:1,2013-11-10T19:00:00Z,26.6955,-81.8138,1.7,0.94,1111122 
SCCF RECON,ioos:station:SCCF:18:1,2013-11-10T20:00:00Z,26.6955,-81.8138,1.655,0.86,1111122 
SCCF RECON,ioos:station:SCCF:18:1,2013-11-10T21:00:00Z,26.6955,-81.8138,1.61,0.83,1111122 
SCCF RECON,ioos:station:SCCF:18:1,2013-11-10T22:00:00Z,26.6955,-81.8138,1.57,0.84,1111122 
SCCF RECON,ioos:station:SCCF:18:1,2013-11-10T23:00:00Z,26.6955,-81.8138,1.58,0.89,1111122 
SCCF RECON,ioos:station:SCCF:18:1,2013-11-11T00:00:00Z,26.6955,-81.8138,1.641,1.52,1111122 
SCCF RECON,ioos:station:SCCF:18:1,2013-11-11T01:00:00Z,26.6955,-81.8138,1.72,1.15,1111122 
SCCF RECON,ioos:station:SCCF:18:1,2013-11-11T02:00:00Z,26.6955,-81.8138,1.77,1.49,1111122 
SCCF RECON,ioos:station:SCCF:18:1,2013-11-11T03:00:00Z,26.6955,-81.8138,1.81,1.36,1111122 
SCCF RECON,ioos:station:SCCF:18:1,2013-11-11T04:00:00Z,26.6955,-81.8138,1.85,1.52,1111122 
SCCF RECON,ioos:station:SCCF:18:1,2013-11-11T05:00:00Z,26.6955,-81.8138,1.87,1.14,1111122 
SCCF RECON,ioos:station:SCCF:18:1,2013-11-11T06:00:00Z,26.6955,-81.8138,1.84,0.85,1111122 
SCCF RECON,ioos:station:SCCF:18:1,2013-11-11T07:00:00Z,26.6955,-81.8138,1.77,1.0,1111122 
SCCF RECON,ioos:station:SCCF:18:1,2013-11-11T08:00:00Z,26.6955,-81.8138,1.7,0.97,1111122 
SCCF RECON,ioos:station:SCCF:18:1,2013-11-11T09:00:00Z,26.6955,-81.8138,1.66,1.0,1111122 
SCCF RECON,ioos:station:SCCF:18:1,2013-11-11T10:00:00Z,26.6955,-81.8138,1.62,0.99,1111122 
SCCF RECON,ioos:station:SCCF:18:1,2013-11-11T11:00:00Z,26.6955,-81.8138,1.61,0.94,1111122 
SCCF RECON,ioos:station:SCCF:18:1,2013-11-11T12:00:00Z,26.6955,-81.8138,1.63,0.94,1111122 
SCCF RECON,ioos:station:SCCF:18:1,2013-11-11T13:00:00Z,26.6955,-81.8138,1.69,1.43,1111122 
SCCF RECON,ioos:station:SCCF:18:1,2013-11-11T14:00:00Z,26.6955,-81.8138,1.75,1.23,1111122 
SCCF RECON,ioos:station:SCCF:18:1,2013-11-11T15:00:00Z,26.6955,-81.8138,1.81,1.62,1111122 
SCCF RECON,ioos:station:SCCF:18:1,2013-11-11T16:00:00Z,26.6955,-81.8138,1.85,1.27,1111122 
SCCF RECON,ioos:station:SCCF:18:1,2013-11-11T17:00:00Z,26.6955,-81.8138,1.84,0.84,1111122 
SCCF RECON,ioos:station:SCCF:18:1,2013-11-11T18:00:00Z,26.6955,-81.8138,1.78,1.02,1111122 
SCCF RECON,ioos:station:SCCF:18:1,2013-11-11T19:00:00Z,26.6955,-81.8138,1.7,1.07,1111122 
SCCF RECON,ioos:station:SCCF:18:1,2013-11-11T20:00:00Z,26.6955,-81.8138,1.64,0.99,1111122 
SCCF RECON,ioos:station:SCCF:18:1,2013-11-11T21:00:00Z,26.6955,-81.8138,1.61,1.01,1111122 